Location: Ernsee
(50.8780°N, 12.0389°E)
Time: 10:54:24
(UTC+00:00)

Cosmos 1538 Rocket - Pass Details

Date: 20 January 2020
Orbit: 753 x 791 km, 74.0° (Epoch: 18 February)

Event Time Altitude Azimuth Distance (km) Brightness Sun altitude
Rises 05:27:13 0° 221° (SW) 3,271 7.0 -14.9°
Reaches altitude 10° 05:29:42 10° 227° (SW) 2,343 6.2 -14.5°
Maximum altitude 05:34:51 48° 301° (WNW) 1,018 4.2 -13.7°
Drops below altitude 10° 05:39:59 10° 16° (NNE) 2,335 6.5 -12.9°
Sets 05:42:27 0° 22° (NNE) 3,259 7.3 -12.5°
